Tracking 17887 objects as of 11-December-2016
HD Live streaming from Space Station
objects crossing your sky now

THORAD AGENA D DEB

Track THORAD AGENA D DEB now!
10-day predictions


NORAD ID: 4768
Int'l Code: 1970-025DN
Perigee: 985.5 km
Apogee: 1,031.0 km
Inclination: 100.2 °
Period: 105.1 minutes
Semi major axis: 7379 km
RCS: 0.064 m2 (small)
Launch date: April 8, 1970
Source: United States (US)
Launch site: AIR FORCE WESTERN TEST RANGE (AFWTR)

Note: This is SATELLITE DEBRIS
Your satellite tracking list
Your tracking list is empty





NASA's NSSDC Master Catalog

Two Line Element Set (TLE):
1 04768U 70025DN  16346.03264017  .00000060  00000-0  12539-3 0  9991
2 04768 100.1883 144.9529 0030868 167.6616 306.2919 13.69566722322453
Source of the keplerian elements: AFSPC